EW6072 Weather Reports


Display with metric or nautical units.
time (UTC)temp
F
wind
direction
speed
MPH
gust
MPH
rain 1hr
in
rain 24hr
in
rain mn
in
humidity
%
barometer
mb
20190222124525 42 128 0.0 2.0 0.00 0.21 0.17 96 1023.1
20190222123013 42 128 1.0 2.0 0.00 0.21 0.17 96 1022.7
20190222121546 42 128 0.0 3.0 0.00 0.21 0.17 96 1022.6
20190222120017 42 128 0.0 3.0 0.00 0.21 0.17 96 1022.7
20190222114519 42 127 1.0 3.0 0.02 0.21 0.17 96 1022.6
20190222113016 42 61 1.0 2.0 0.03 0.21 0.17 96 1022.4
20190222111511 42 9 0.0 1.0 0.04 0.21 0.17 96 1022.2
20190222110013 42 11 0.0 3.0 0.04 0.21 0.17 96 1021.8
20190222104531 42 134 2.0 7.0 0.02 0.19 0.15 95 1022.2
20190222103011 42 279 1.0 3.0 0.01 0.18 0.14 95 1022.9
20190222101717 42 171 0.0 0.0 0.00 0.17 0.13 95 1021.6
20190222100228 42 173 0.0 3.0 0.00 0.17 0.13 95 1021.2
20190222094715 42 200 0.0 0.0 0.00 0.17 0.13 95 1021.3
20190222093212 42 200 0.0 3.0 0.00 0.17 0.13 95 1021.1
20190222091702 42 258 0.0 1.0 0.01 0.17 0.13 95 1021.2
20190222090246 42 258 0.0 3.0 0.01 0.17 0.13 95 1021.5
20190222084628 42 244 0.0 2.0 0.01 0.17 0.13 95 1021.3
20190222083138 43 242 1.0 3.0 0.01 0.17 0.13 95 1021.6
20190222081646 44 301 2.0 4.0 0.02 0.16 0.12 95 1021.5
20190222080110 45 347 2.0 4.0 0.02 0.16 0.12 95 1021.6
20190222074630 45 312 0.0 3.0 0.02 0.16 0.12 95 1021.2
20190222073131 46 346 0.0 1.0 0.02 0.16 0.12 95 1021.1
20190222070122 46 346 0.0 0.0 0.01 0.14 0.10 95 1020.8
20190222064542 47 346 0.0 0.0 0.02 0.17 0.10 95 1020.4
20190222063134 47 346 0.0 2.0 0.05 0.17 0.10 95 1020.8
20190222061548 47 346 0.0 0.0 0.08 0.17 0.10 95 1020.6
20190222060124 47 346 0.0 1.0 0.09 0.16 0.09 95 1020.8
20190222054545 47 350 0.0 2.0 0.10 0.16 0.08 95 1021.0
20190222053034 48 141 2.0 4.0 0.07 0.13 0.05 95 1020.7
20190222051613 48 261 0.0 3.0 0.04 0.10 0.02 95 1021.3
20190222050115 48 290 1.0 2.0 0.02 0.08 0.00 95 1021.1
20190222044546 48 286 0.0 4.0 0.00 0.06 0.06 95 1021.3
20190222043040 49 323 1.0 4.0 0.00 0.06 0.06 95 1021.2
20190222041525 49 34 0.0 5.0 0.00 0.06 0.06 95 1021.7
20190222040104 49 274 0.0 4.0 0.00 0.06 0.06 96 1021.3
20190222034522 49 284 0.0 4.0 0.00 0.09 0.06 95 1021.1
20190222033026 49 281 0.0 0.0 0.00 0.09 0.06 95 1020.8
20190222031536 50 279 0.0 0.0 0.00 0.09 0.06 95 1021.3
20190222030024 50 277 0.0 0.0 0.00 0.09 0.06 95 1021.2
20190222024538 50 277 1.0 3.0 0.02 0.09 0.06 95 1021.5
20190222023024 50 156 0.0 2.0 0.02 0.09 0.06 95 1021.4
20190222021513 50 153 0.0 3.0 0.02 0.09 0.06 95 1021.3
20190222020019 51 279 2.0 7.0 0.02 0.09 0.06 94 1021.5
20190222014523 51 317 1.0 3.0 0.00 0.07 0.04 94 1021.2
20190222013010 51 288 0.0 0.0 0.00 0.07 0.04 94 1020.1
20190222011508 51 288 0.0 3.0 0.00 0.07 0.04 93 1020.1
20190222010011 51 292 0.0 1.0 0.00 0.07 0.04 93 1020.1
20190222004508 51 292 0.0 3.0 0.00 0.12 0.04 93 1019.9
20190222003011 51 316 1.0 4.0 0.00 0.12 0.04 93 1020.5
20190222001506 52 263 0.0 3.0 0.00 0.12 0.04 93 1019.9
20190222000004 52 298 1.0 6.0 0.00 0.12 0.04 92 1019.5
20190221234503 52 295 1.0 4.0 0.00 0.20 0.04 92 1019.3
20190221233002 52 333 1.0 5.0 0.00 0.20 0.04 92 1019.6
20190221231850 52 298 2.0 8.0 0.00 0.20 0.04 92 1019.5
20190221230141 53 304 0.0 6.0 0.00 0.20 0.04 91 1019.4
20190221224724 53 311 1.0 7.0 0.00 0.42 0.04 91 1019.4
20190221223148 53 270 1.0 10.0 0.00 0.42 0.04 91 1019.4
20190221221626 54 302 1.0 8.0 0.00 0.42 0.04 90 1019.6
20190221220201 54 314 3.0 9.0 0.00 0.42 0.04 89 1019.7
20190221214643 55 296 1.0 8.0 0.00 0.42 0.04 89 1019.7
20190221213143 56 344 1.0 7.0 0.00 0.42 0.04 87 1019.6
20190221211634 57 254 3.0 9.0 0.00 0.42 0.04 87 1019.5
20190221210116 57 303 1.0 4.0 0.00 0.42 0.04 87 1019.2
20190221204721 57 292 2.0 4.0 0.00 0.42 0.04 87 1019.2
20190221203123 57 290 1.0 7.0 0.00 0.42 0.04 87 1018.9
20190221201612 57 317 3.0 5.0 0.00 0.42 0.04 88 1018.8
20190221200149 57 299 4.0 7.0 0.00 0.42 0.04 88 1019.0
20190221194627 57 302 2.0 6.0 0.00 0.43 0.04 89 1019.1
20190221193118 55 275 1.0 6.0 0.00 0.43 0.04 91 1018.9
20190221191655 55 304 2.0 10.0 0.00 0.43 0.04 90 1019.1
20190221190116 55 311 2.0 5.0 0.00 0.43 0.04 92 1019.1
20190221184614 55 279 1.0 9.0 0.00 0.44 0.04 92 1018.8
20190221183209 55 298 2.0 5.0 0.00 0.44 0.04 93 1019.0
20190221181721 55 293 1.0 4.0 0.00 0.44 0.04 95 1019.3
20190221180106 54 336 2.0 6.0 0.00 0.44 0.04 96 1019.3
20190221174618 54 265 1.0 4.0 0.00 0.44 0.04 96 1019.3
20190221173044 54 314 2.0 7.0 0.00 0.44 0.04 97 1019.4
20190221171600 54 331 2.0 5.0 0.00 0.44 0.04 97 1019.9
20190221170059 54 312 4.0 12.0 0.00 0.44 0.04 97 1020.3
20190221164559 53 316 3.0 9.0 0.00 0.45 0.04 98 1020.3
20190221163056 53 267 3.0 8.0 0.00 0.45 0.04 98 1020.5
20190221161549 52 276 2.0 6.0 0.00 0.45 0.04 98 1020.6
20190221160102 52 300 1.0 7.0 0.00 0.45 0.04 98 1020.3
20190221154605 52 328 2.0 9.0 0.00 0.45 0.04 98 1020.6
20190221153102 52 345 1.0 5.0 0.00 0.45 0.04 98 1020.6
20190221151559 52 279 2.0 7.0 0.00 0.45 0.04 98 1020.4
20190221150033 52 294 4.0 10.0 0.00 0.45 0.04 98 1020.5
20190221144606 51 286 2.0 5.0 0.00 0.46 0.04 98 1020.6
20190221143039 50 304 2.0 7.0 0.00 0.46 0.04 98 1020.5
20190221141542 50 332 2.0 5.0 0.00 0.46 0.04 98 1020.9
20190221140029 50 306 4.0 10.0 0.00 0.46 0.04 98 1020.7
20190221134510 50 57 3.0 10.0 0.00 0.48 0.04 98 1020.4
20190221133006 50 331 1.0 9.0 0.00 0.48 0.04 98 1020.1
20190221131510 49 290 2.0 6.0 0.00 0.48 0.04 98 1020.0
20190221130004 49 319 2.0 8.0 0.00 0.48 0.04 98 1020.1